VSP236 SBBR-SBEG

Flight info

Callsign VSP236
Flight time 2h 31m
Altitude 34000
Route UGUGA UM409 NEMEL DCT IRUMO
Aircraft B738/M-SDE2E3FGHIRWXY/LB1

Departure

Time 2026-04-26 20:36
Airport Presidente Juscelino Kubitschek International Airport (SBBR)

Arrival

Time 2026-04-26 23:07
Airport Eduardo Gomes International Airport (SBEG)
Time Latitude Longitude Altitude Speed Heading
2026-04-26 19:43 -15.86686 -47.91797 3477 ft 0 kts 178°
2026-04-26 19:45 -15.86718 -47.91762 3478 ft 0 kts 236°
2026-04-26 20:16 -15.86711 -47.91752 3478 ft 2 kts 236°
2026-04-26 20:16 -15.86703 -47.91739 3478 ft 2 kts 256°
2026-04-26 20:16 -15.86704 -47.91723 3478 ft 2 kts 294°
2026-04-26 20:17 -15.86713 -47.91711 3478 ft 2 kts 329°
2026-04-26 20:17 -15.86724 -47.91707 3478 ft 1 kts 359°
2026-04-26 20:17 -15.86731 -47.91707 3478 ft 0 kts 358°
2026-04-26 20:20 -15.86728 -47.91707 3478 ft 0 kts 358°
2026-04-26 20:20 -15.86719 -47.91708 3478 ft 2 kts 358°
2026-04-26 20:20 -15.86694 -47.91708 3477 ft 3 kts
2026-04-26 20:20 -15.86671 -47.91692 3477 ft 4 kts 54°
2026-04-26 20:21 -15.86661 -47.91662 3477 ft 4 kts 79°
2026-04-26 20:21 -15.86649 -47.91634 3477 ft 4 kts 45°
2026-04-26 20:21 -15.86621 -47.91624 3476 ft 4 kts
2026-04-26 20:21 -15.86581 -47.91625 3475 ft 6 kts 356°
2026-04-26 20:22 -15.86528 -47.91629 3474 ft 7 kts 355°
2026-04-26 20:22 -15.86477 -47.91623 3473 ft 8 kts 30°
2026-04-26 20:22 -15.86453 -47.91568 3472 ft 9 kts 85°
2026-04-26 20:22 -15.86449 -47.91498 3472 ft 10 kts 87°
2026-04-26 20:23 -15.86446 -47.91428 3473 ft 9 kts 86°
2026-04-26 20:23 -15.86441 -47.91363 3474 ft 8 kts 85°
2026-04-26 20:23 -15.86437 -47.91302 3475 ft 8 kts 86°
2026-04-26 20:23 -15.86433 -47.91249 3476 ft 7 kts 86°
2026-04-26 20:24 -15.86430 -47.91200 3477 ft 6 kts 85°
2026-04-26 20:24 -15.86427 -47.91157 3478 ft 5 kts 86°
2026-04-26 20:24 -15.86425 -47.91121 3478 ft 4 kts 86°
2026-04-26 20:24 -15.86423 -47.91091 3479 ft 3 kts 86°
2026-04-26 20:25 -15.86422 -47.91069 3479 ft 2 kts 86°
2026-04-26 20:25 -15.86421 -47.91060 3480 ft 1 kts 86°
2026-04-26 20:25 -15.86421 -47.91052 3480 ft 0 kts 86°
2026-04-26 20:25 -15.86420 -47.91042 3480 ft 3 kts 86°
2026-04-26 20:26 -15.86418 -47.91004 3482 ft 7 kts 85°
2026-04-26 20:26 -15.86414 -47.90936 3483 ft 9 kts 86°
2026-04-26 20:26 -15.86410 -47.90872 3484 ft 8 kts 86°
2026-04-26 20:26 -15.86406 -47.90808 3484 ft 9 kts 86°
2026-04-26 20:27 -15.86402 -47.90731 3484 ft 10 kts 88°
2026-04-26 20:27 -15.86398 -47.90656 3485 ft 9 kts 83°
2026-04-26 20:27 -15.86392 -47.90591 3484 ft 8 kts 84°
2026-04-26 20:27 -15.86388 -47.90541 3485 ft 5 kts 85°
2026-04-26 20:28 -15.86386 -47.90509 3485 ft 3 kts 86°
2026-04-26 20:28 -15.86384 -47.90474 3485 ft 6 kts 86°
2026-04-26 20:28 -15.86380 -47.90413 3484 ft 10 kts 86°
2026-04-26 20:28 -15.86376 -47.90330 3483 ft 12 kts 88°
2026-04-26 20:29 -15.86371 -47.90226 3480 ft 14 kts 81°
2026-04-26 20:29 -15.86362 -47.90130 3478 ft 12 kts 85°
2026-04-26 20:29 -15.86357 -47.90047 3476 ft 11 kts 87°
2026-04-26 20:29 -15.86354 -47.89962 3474 ft 11 kts 86°
2026-04-26 20:30 -15.86347 -47.89880 3471 ft 11 kts 85°
2026-04-26 20:30 -15.86342 -47.89810 3469 ft 8 kts 86°
2026-04-26 20:30 -15.86336 -47.89761 3469 ft 4 kts 71°
2026-04-26 20:30 -15.86324 -47.89747 3469 ft 0 kts 31°
2026-04-26 20:31 -15.86309 -47.89743 3470 ft 4 kts
2026-04-26 20:31 -15.86276 -47.89743 3471 ft 4 kts 358°
2026-04-26 20:31 -15.86246 -47.89745 3473 ft 1 kts 356°
2026-04-26 20:32 -15.86245 -47.89745 3473 ft 0 kts 356°
2026-04-26 20:32 -15.86239 -47.89745 3473 ft 1 kts 356°
2026-04-26 20:33 -15.86230 -47.89746 3473 ft 1 kts 354°
2026-04-26 20:33 -15.86216 -47.89748 3474 ft 3 kts 347°
2026-04-26 20:33 -15.86192 -47.89761 3475 ft 3 kts 323°
2026-04-26 20:33 -15.86178 -47.89775 3476 ft 2 kts 307°
2026-04-26 20:34 -15.86167 -47.89793 3476 ft 3 kts 302°
2026-04-26 20:34 -15.86154 -47.89817 3477 ft 4 kts 289°
2026-04-26 20:34 -15.86150 -47.89847 3478 ft 4 kts 270°
2026-04-26 20:34 -15.86151 -47.89899 3479 ft 17 kts 267°
2026-04-26 20:35 -15.86177 -47.90260 3485 ft 86 kts 266°
2026-04-26 20:35 -15.86232 -47.91067 3475 ft 138 kts 265°
2026-04-26 20:35 -15.86317 -47.92210 3470 ft 180 kts 264°
2026-04-26 20:35 -15.86376 -47.93586 3689 ft 197 kts 265°
2026-04-26 20:36 -15.86476 -47.95040 4135 ft 206 kts 263°
2026-04-26 20:36 -15.86604 -47.96556 4656 ft 213 kts 263°
2026-04-26 20:36 -15.86696 -47.98123 5128 ft 225 kts 276°
2026-04-26 20:36 -15.86102 -47.99647 5650 ft 232 kts 310°
2026-04-26 20:37 -15.85754 -48.00052 5824 ft 234 kts 317°
2026-04-26 20:37 -15.84918 -48.00771 6181 ft 239 kts 325°
2026-04-26 20:38 -15.74625 -48.09217 9704 ft 301 kts 321°
2026-04-26 20:39 -15.73442 -48.10227 10068 ft 302 kts 322°
2026-04-26 20:39 -15.72016 -48.11445 10506 ft 303 kts 322°
2026-04-26 20:39 -15.70386 -48.12835 10801 ft 318 kts 322°
2026-04-26 20:39 -15.68605 -48.14352 10864 ft 342 kts 322°
2026-04-26 20:40 -15.66718 -48.15961 10943 ft 362 kts 322°
2026-04-26 20:40 -15.64755 -48.17636 11412 ft 369 kts 322°
2026-04-26 20:40 -15.62778 -48.19323 11983 ft 373 kts 322°
2026-04-26 20:40 -15.60805 -48.21007 12570 ft 376 kts 322°
2026-04-26 20:41 -15.58756 -48.22755 13154 ft 380 kts 322°
2026-04-26 20:41 -15.56705 -48.24504 13736 ft 383 kts 322°
2026-04-26 20:41 -15.54663 -48.26245 14306 ft 386 kts 322°
2026-04-26 20:41 -15.52568 -48.28030 14870 ft 390 kts 322°
2026-04-26 20:42 -15.50466 -48.29822 15448 ft 393 kts 322°
2026-04-26 20:42 -15.48346 -48.31630 16004 ft 397 kts 321°
2026-04-26 20:42 -15.46212 -48.33448 16551 ft 400 kts 321°
2026-04-26 20:42 -15.44047 -48.35294 17074 ft 404 kts 321°
2026-04-26 20:43 -15.41897 -48.37125 17605 ft 407 kts 321°
2026-04-26 20:43 -15.39685 -48.39010 18111 ft 410 kts 321°
2026-04-26 20:43 -15.37467 -48.40900 18611 ft 414 kts 321°
2026-04-26 20:43 -15.35246 -48.42791 19117 ft 416 kts 321°
2026-04-26 20:44 -15.32992 -48.44711 19595 ft 420 kts 321°
2026-04-26 20:44 -15.30715 -48.46650 20064 ft 423 kts 321°
2026-04-26 20:44 -15.28459 -48.48570 20552 ft 425 kts 321°
2026-04-26 20:44 -15.26159 -48.50529 21004 ft 429 kts 321°
2026-04-26 20:45 -15.23859 -48.52487 21462 ft 431 kts 321°
2026-04-26 20:45 -15.21520 -48.54478 21901 ft 434 kts 321°
2026-04-26 20:45 -15.19168 -48.56480 22337 ft 437 kts 321°
2026-04-26 20:45 -15.16822 -48.58476 22760 ft 440 kts 321°
2026-04-26 20:46 -15.14447 -48.60498 23181 ft 442 kts 320°
2026-04-26 20:46 -15.12083 -48.62509 23583 ft 445 kts 320°
2026-04-26 20:46 -15.09680 -48.64554 23989 ft 447 kts 320°
2026-04-26 20:46 -15.07294 -48.66583 24378 ft 449 kts 320°
2026-04-26 20:47 -15.04870 -48.68645 24768 ft 452 kts 320°
2026-04-26 20:47 -15.03247 -48.70026 25017 ft 453 kts 320°
2026-04-26 20:47 -15.00009 -48.72779 25541 ft 456 kts 320°
2026-04-26 20:47 -14.97543 -48.74874 25902 ft 458 kts 320°
2026-04-26 20:48 -14.95076 -48.76955 26268 ft 460 kts 320°
2026-04-26 20:48 -14.92558 -48.79056 26622 ft 462 kts 321°
2026-04-26 20:48 -14.90071 -48.81114 26965 ft 464 kts 321°
2026-04-26 20:48 -14.87547 -48.83192 27294 ft 466 kts 321°
2026-04-26 20:49 -14.84999 -48.85286 27625 ft 468 kts 321°
2026-04-26 20:49 -14.82460 -48.87375 27935 ft 471 kts 321°
2026-04-26 20:49 -14.79876 -48.89511 28253 ft 473 kts 320°
2026-04-26 20:49 -14.77317 -48.91635 28548 ft 475 kts 320°
2026-04-26 20:50 -14.74736 -48.93793 28851 ft 476 kts 320°
2026-04-26 20:50 -14.72174 -48.95953 29161 ft 478 kts 320°
2026-04-26 20:50 -14.69626 -48.98118 29550 ft 477 kts 319°
2026-04-26 20:50 -14.67060 -49.00317 29955 ft 476 kts 319°
2026-04-26 20:51 -14.64516 -49.02513 30374 ft 475 kts 319°
2026-04-26 20:51 -14.62020 -49.04680 30784 ft 473 kts 319°
2026-04-26 20:51 -14.59507 -49.06869 31185 ft 471 kts 319°
2026-04-26 20:51 -14.57010 -49.09049 31591 ft 469 kts 318°
2026-04-26 20:52 -14.54504 -49.11235 31975 ft 468 kts 319°
2026-04-26 20:52 -14.52048 -49.13373 32356 ft 466 kts 319°
2026-04-26 20:52 -14.49564 -49.15524 32738 ft 465 kts 319°
2026-04-26 20:52 -14.47084 -49.17659 33117 ft 463 kts 319°
2026-04-26 20:53 -14.44600 -49.19785 33473 ft 461 kts 319°
2026-04-26 20:53 -14.42133 -49.21890 33819 ft 460 kts 319°
2026-04-26 20:53 -14.39697 -49.23964 34084 ft 459 kts 319°
2026-04-26 20:54 -14.34719 -49.28199 34102 ft 467 kts 319°
2026-04-26 20:54 -14.29704 -49.32457 34100 ft 466 kts 319°
2026-04-26 20:55 -14.24726 -49.36680 34101 ft 464 kts 319°
2026-04-26 20:55 -14.19763 -49.40888 34101 ft 464 kts 319°
2026-04-26 20:56 -14.14750 -49.45135 34101 ft 465 kts 319°
2026-04-26 20:56 -14.09769 -49.49355 34101 ft 465 kts 319°
2026-04-26 20:57 -14.04762 -49.53594 34101 ft 465 kts 319°
2026-04-26 20:57 -13.99825 -49.57874 34101 ft 464 kts 317°
2026-04-26 20:58 -13.94979 -49.62227 34101 ft 464 kts 317°
2026-04-26 20:58 -13.90099 -49.66604 34101 ft 464 kts 317°
2026-04-26 20:59 -13.85263 -49.70933 34101 ft 464 kts 317°
2026-04-26 20:59 -13.80380 -49.75299 34101 ft 464 kts 317°
2026-04-26 21:00 -13.75483 -49.79672 34101 ft 464 kts 317°
2026-04-26 21:00 -13.70644 -49.83991 34101 ft 464 kts 317°
2026-04-26 21:01 -13.65750 -49.88355 34101 ft 464 kts 317°
2026-04-26 21:01 -13.60859 -49.92713 34101 ft 464 kts 317°
2026-04-26 21:02 -13.55977 -49.97062 34101 ft 464 kts 317°
2026-04-26 21:02 -13.51099 -50.01404 34101 ft 464 kts 317°
2026-04-26 21:03 -13.46238 -50.05727 34101 ft 464 kts 317°
2026-04-26 21:03 -13.41352 -50.10072 34101 ft 464 kts 318°
2026-04-26 21:04 -13.36452 -50.14426 34101 ft 464 kts 318°
2026-04-26 21:04 -13.31590 -50.18744 34090 ft 465 kts 318°
2026-04-26 21:05 -13.26683 -50.23100 34060 ft 465 kts 318°
2026-04-26 21:05 -13.21824 -50.27410 34031 ft 464 kts 318°
2026-04-26 21:06 -13.16936 -50.31739 34002 ft 465 kts 318°
2026-04-26 21:06 -13.12035 -50.36061 33973 ft 465 kts 318°
2026-04-26 21:07 -13.07114 -50.40407 33936 ft 466 kts 318°
2026-04-26 21:07 -13.02197 -50.44752 34062 ft 468 kts 318°
2026-04-26 21:08 -12.97262 -50.49115 34065 ft 472 kts 318°
2026-04-26 21:08 -12.92283 -50.53514 34058 ft 472 kts 318°
2026-04-26 21:09 -12.87324 -50.57895 34044 ft 471 kts 318°
2026-04-26 21:09 -12.82354 -50.62284 34029 ft 471 kts 318°
2026-04-26 21:10 -12.77397 -50.66658 34026 ft 471 kts 318°
2026-04-26 21:10 -12.72433 -50.71038 34044 ft 471 kts 318°
2026-04-26 21:11 -12.67463 -50.75420 34052 ft 472 kts 318°
2026-04-26 21:11 -12.62508 -50.79787 34051 ft 472 kts 318°
2026-04-26 21:12 -12.57537 -50.84165 34036 ft 472 kts 318°
2026-04-26 21:12 -12.52566 -50.88541 34022 ft 471 kts 318°
2026-04-26 21:13 -12.47623 -50.92890 34020 ft 471 kts 319°
2026-04-26 21:13 -12.42655 -50.97259 34020 ft 470 kts 319°
2026-04-26 21:14 -12.37712 -51.01603 34020 ft 470 kts 319°
2026-04-26 21:14 -12.32762 -51.05951 34019 ft 469 kts 319°
2026-04-26 21:15 -12.27819 -51.10294 34021 ft 468 kts 319°
2026-04-26 21:15 -12.22877 -51.14662 34020 ft 468 kts 319°
2026-04-26 21:16 -12.17967 -51.19001 34020 ft 468 kts 319°
2026-04-26 21:16 -12.13027 -51.23335 34020 ft 468 kts 319°
2026-04-26 21:17 -12.08075 -51.27655 34020 ft 468 kts 319°
2026-04-26 21:17 -12.03125 -51.31943 34020 ft 468 kts 320°
2026-04-26 21:18 -11.98147 -51.36227 34020 ft 468 kts 320°
2026-04-26 21:18 -11.93155 -51.40513 34020 ft 468 kts 320°
2026-04-26 21:19 -11.88187 -51.44791 34020 ft 468 kts 320°
2026-04-26 21:19 -11.83226 -51.49089 34020 ft 468 kts 319°
2026-04-26 21:20 -11.78324 -51.53374 34020 ft 468 kts 319°
2026-04-26 21:20 -11.73399 -51.57710 34020 ft 468 kts 319°
2026-04-26 21:21 -11.68462 -51.62079 34020 ft 468 kts 319°
2026-04-26 21:21 -11.63521 -51.66431 34020 ft 468 kts 319°
2026-04-26 21:22 -11.58590 -51.70755 34020 ft 468 kts 319°
2026-04-26 21:22 -11.53638 -51.75084 34003 ft 468 kts 319°
2026-04-26 21:23 -11.46207 -51.81565 33911 ft 467 kts 319°
2026-04-26 21:23 -11.41239 -51.85891 33912 ft 467 kts 319°
2026-04-26 21:24 -11.36320 -51.90171 33912 ft 468 kts 319°
2026-04-26 21:24 -11.31370 -51.94476 33912 ft 469 kts 319°
2026-04-26 21:25 -11.26390 -51.98785 33912 ft 468 kts 320°
2026-04-26 21:25 -11.21388 -52.03011 33911 ft 468 kts 320°
2026-04-26 21:26 -11.16354 -52.07266 33912 ft 468 kts 320°
2026-04-26 21:26 -11.11350 -52.11502 33912 ft 468 kts 320°
2026-04-26 21:27 -11.06368 -52.15722 33912 ft 468 kts 320°
2026-04-26 21:27 -11.01341 -52.19980 33912 ft 468 kts 320°
2026-04-26 21:28 -10.96338 -52.24207 33912 ft 468 kts 320°
2026-04-26 21:28 -10.91318 -52.28403 33912 ft 468 kts 320°
2026-04-26 21:29 -10.86274 -52.32589 33912 ft 468 kts 320°
2026-04-26 21:29 -10.81242 -52.36769 33912 ft 468 kts 320°
2026-04-26 21:30 -10.76204 -52.40984 33912 ft 468 kts 320°
2026-04-26 21:30 -10.71195 -52.45217 33912 ft 468 kts 320°
2026-04-26 21:31 -10.66201 -52.49475 33912 ft 468 kts 319°
2026-04-26 21:31 -10.61261 -52.53717 33912 ft 468 kts 319°
2026-04-26 21:32 -10.56290 -52.57997 33912 ft 468 kts 319°
2026-04-26 21:32 -10.51323 -52.62263 33912 ft 468 kts 319°
2026-04-26 21:33 -10.46308 -52.66535 33912 ft 468 kts 320°
2026-04-26 21:33 -10.41306 -52.70754 33912 ft 468 kts 320°
2026-04-26 21:34 -10.36306 -52.74953 33912 ft 468 kts 320°
2026-04-26 21:34 -10.31278 -52.79179 33911 ft 468 kts 320°
2026-04-26 21:35 -10.26282 -52.83381 33912 ft 467 kts 320°
2026-04-26 21:35 -10.21286 -52.87583 33912 ft 465 kts 320°
2026-04-26 21:36 -10.16333 -52.91749 33912 ft 462 kts 320°
2026-04-26 21:36 -10.11374 -52.95918 33912 ft 460 kts 320°
2026-04-26 21:37 -10.06456 -53.00052 33912 ft 459 kts 320°
2026-04-26 21:37 -10.01549 -53.04176 33910 ft 458 kts 320°
2026-04-26 21:38 -9.96656 -53.08285 33885 ft 458 kts 320°
2026-04-26 21:38 -9.91739 -53.12413 33885 ft 459 kts 320°
2026-04-26 21:39 -9.86940 -53.16665 33885 ft 459 kts 317°
2026-04-26 21:39 -9.82245 -53.21056 33884 ft 459 kts 317°
2026-04-26 21:40 -9.77567 -53.25425 33885 ft 459 kts 317°
2026-04-26 21:40 -9.72878 -53.29794 33885 ft 459 kts 317°
2026-04-26 21:41 -9.68179 -53.34169 33885 ft 459 kts 317°
2026-04-26 21:41 -9.63467 -53.38549 33885 ft 459 kts 317°
2026-04-26 21:42 -9.58780 -53.42904 33885 ft 459 kts 317°
2026-04-26 21:42 -9.54077 -53.47272 33885 ft 459 kts 317°
2026-04-26 21:43 -9.49384 -53.51621 33885 ft 459 kts 317°
2026-04-26 21:43 -9.44681 -53.55979 33885 ft 459 kts 317°
2026-04-26 21:44 -9.39964 -53.60351 33885 ft 459 kts 317°
2026-04-26 21:44 -9.35248 -53.64721 33885 ft 459 kts 317°
2026-04-26 21:45 -9.30546 -53.69077 33885 ft 459 kts 317°
2026-04-26 21:45 -9.25856 -53.73421 33885 ft 459 kts 317°
2026-04-26 21:46 -9.21160 -53.77770 33885 ft 459 kts 317°
2026-04-26 21:46 -9.16437 -53.82140 33885 ft 459 kts 317°
2026-04-26 21:47 -9.11750 -53.86477 33885 ft 459 kts 317°
2026-04-26 21:47 -9.07031 -53.90846 33885 ft 459 kts 317°
2026-04-26 21:48 -9.02342 -53.95189 33885 ft 461 kts 318°
2026-04-26 21:48 -8.97611 -53.99564 33885 ft 464 kts 318°
2026-04-26 21:49 -8.92839 -54.03965 33885 ft 465 kts 318°
2026-04-26 21:49 -8.88074 -54.08361 33884 ft 465 kts 318°
2026-04-26 21:50 -8.83302 -54.12765 33885 ft 464 kts 318°
2026-04-26 21:50 -8.78536 -54.17162 33885 ft 464 kts 318°
2026-04-26 21:51 -8.73784 -54.21544 33885 ft 464 kts 318°
2026-04-26 21:51 -8.69006 -54.25951 33885 ft 464 kts 318°
2026-04-26 21:52 -8.64244 -54.30339 33885 ft 464 kts 318°
2026-04-26 21:52 -8.59481 -54.34728 33885 ft 464 kts 318°
2026-04-26 21:53 -8.54721 -54.39113 33885 ft 464 kts 318°
2026-04-26 21:53 -8.49958 -54.43498 33885 ft 464 kts 318°
2026-04-26 21:54 -8.45195 -54.47883 33885 ft 464 kts 318°
2026-04-26 21:54 -8.40390 -54.52304 33885 ft 464 kts 318°
2026-04-26 21:55 -8.35642 -54.56672 33885 ft 464 kts 318°
2026-04-26 21:55 -8.30864 -54.61064 33885 ft 464 kts 318°
2026-04-26 21:56 -8.26105 -54.65439 33885 ft 464 kts 318°
2026-04-26 21:56 -8.21328 -54.69829 33885 ft 464 kts 318°
2026-04-26 21:57 -8.16552 -54.74216 33885 ft 464 kts 318°
2026-04-26 21:57 -8.11768 -54.78608 33885 ft 464 kts 318°
2026-04-26 21:58 -8.07007 -54.82979 33885 ft 464 kts 318°
2026-04-26 21:58 -8.02262 -54.87333 33885 ft 464 kts 318°
2026-04-26 21:59 -7.97490 -54.91710 33885 ft 464 kts 318°
2026-04-26 21:59 -7.92700 -54.96102 33885 ft 464 kts 318°
2026-04-26 22:00 -7.87943 -55.00464 33885 ft 463 kts 318°
2026-04-26 22:00 -7.83180 -55.04829 33884 ft 460 kts 318°
2026-04-26 22:01 -7.78474 -55.09140 33885 ft 457 kts 318°
2026-04-26 22:01 -7.73771 -55.13447 33885 ft 454 kts 318°
2026-04-26 22:02 -7.69115 -55.17709 33885 ft 454 kts 317°
2026-04-26 22:02 -7.64423 -55.22003 33885 ft 455 kts 317°
2026-04-26 22:03 -7.59738 -55.26289 33885 ft 455 kts 317°
2026-04-26 22:03 -7.55077 -55.30553 33885 ft 455 kts 317°
2026-04-26 22:04 -7.50405 -55.34825 33885 ft 455 kts 317°
2026-04-26 22:04 -7.45699 -55.39127 33885 ft 455 kts 317°
2026-04-26 22:05 -7.41255 -55.43638 33885 ft 454 kts 311°
2026-04-26 22:05 -7.37239 -55.48517 33885 ft 454 kts 306°
2026-04-26 22:06 -7.33478 -55.53634 33885 ft 454 kts 306°
2026-04-26 22:06 -7.29744 -55.58767 33885 ft 454 kts 306°
2026-04-26 22:07 -7.26046 -55.63862 33885 ft 454 kts 306°
2026-04-26 22:07 -7.22315 -55.69010 33885 ft 454 kts 306°
2026-04-26 22:08 -7.18607 -55.74128 33884 ft 454 kts 306°
2026-04-26 22:08 -7.14892 -55.79258 33885 ft 453 kts 305°
2026-04-26 22:09 -7.11181 -55.84381 33885 ft 453 kts 305°
2026-04-26 22:09 -7.07459 -55.89518 33885 ft 453 kts 305°
2026-04-26 22:10 -7.03758 -55.94626 33885 ft 453 kts 305°
2026-04-26 22:10 -7.00049 -55.99744 33885 ft 454 kts 306°
2026-04-26 22:11 -6.96338 -56.04861 33885 ft 454 kts 306°
2026-04-26 22:11 -6.92605 -56.10009 33885 ft 454 kts 306°
2026-04-26 22:12 -6.88893 -56.15126 33885 ft 454 kts 306°
2026-04-26 22:12 -6.85167 -56.20260 33885 ft 454 kts 306°
2026-04-26 22:13 -6.81449 -56.25382 33885 ft 454 kts 306°
2026-04-26 22:13 -6.77722 -56.30514 33885 ft 454 kts 306°
2026-04-26 22:14 -6.74014 -56.35619 33885 ft 454 kts 306°
2026-04-26 22:14 -6.70267 -56.40777 33885 ft 454 kts 306°
2026-04-26 22:15 -6.66565 -56.45871 33885 ft 454 kts 306°
2026-04-26 22:15 -6.62839 -56.50996 33885 ft 454 kts 306°
2026-04-26 22:16 -6.59096 -56.56143 33885 ft 454 kts 306°
2026-04-26 22:16 -6.55385 -56.61245 33885 ft 454 kts 306°
2026-04-26 22:17 -6.51655 -56.66372 33884 ft 454 kts 306°
2026-04-26 22:17 -6.47920 -56.71502 33881 ft 454 kts 306°
2026-04-26 22:18 -6.44184 -56.76634 33881 ft 454 kts 306°
2026-04-26 22:18 -6.40465 -56.81740 33883 ft 454 kts 306°
2026-04-26 22:19 -6.36734 -56.86863 33885 ft 454 kts 306°
2026-04-26 22:19 -6.33030 -56.91946 33882 ft 454 kts 306°
2026-04-26 22:20 -6.29297 -56.97068 33876 ft 454 kts 306°
2026-04-26 22:20 -6.25547 -57.02211 33870 ft 455 kts 306°
2026-04-26 22:21 -6.21821 -57.07320 33864 ft 456 kts 305°
2026-04-26 22:21 -6.18059 -57.12478 33859 ft 457 kts 305°
2026-04-26 22:22 -6.14296 -57.17635 33858 ft 457 kts 305°
2026-04-26 22:22 -6.10559 -57.22755 33858 ft 457 kts 305°
2026-04-26 22:23 -6.06812 -57.27887 33858 ft 457 kts 305°
2026-04-26 22:23 -6.03056 -57.33031 33858 ft 457 kts 305°
2026-04-26 22:24 -5.99291 -57.38184 33858 ft 457 kts 305°
2026-04-26 22:24 -5.95549 -57.43306 33858 ft 457 kts 305°
2026-04-26 22:25 -5.91771 -57.48475 33858 ft 457 kts 305°
2026-04-26 22:25 -5.88028 -57.53595 33858 ft 457 kts 305°
2026-04-26 22:26 -5.84262 -57.58745 33858 ft 457 kts 305°
2026-04-26 22:26 -5.80494 -57.63897 33858 ft 457 kts 305°
2026-04-26 22:27 -5.76729 -57.69043 33858 ft 457 kts 305°
2026-04-26 22:27 -5.72990 -57.74152 33858 ft 457 kts 305°
2026-04-26 22:28 -5.69224 -57.79297 33858 ft 457 kts 305°
2026-04-26 22:28 -5.65456 -57.84444 33858 ft 457 kts 305°
2026-04-26 22:29 -5.61716 -57.89550 33858 ft 457 kts 305°
2026-04-26 22:29 -5.57940 -57.94704 33858 ft 457 kts 305°
2026-04-26 22:30 -5.54184 -57.99831 33858 ft 457 kts 305°
2026-04-26 22:30 -5.50431 -58.04951 33858 ft 457 kts 305°
2026-04-26 22:31 -5.46646 -58.10113 33858 ft 457 kts 305°
2026-04-26 22:31 -5.42896 -58.15228 33858 ft 457 kts 305°
2026-04-26 22:32 -5.39138 -58.20351 33858 ft 457 kts 305°
2026-04-26 22:32 -5.35376 -58.25479 33858 ft 457 kts 305°
2026-04-26 22:33 -5.29705 -58.33207 33858 ft 457 kts 305°
2026-04-26 22:34 -5.25942 -58.38333 33858 ft 457 kts 305°
2026-04-26 22:34 -5.22181 -58.43455 33858 ft 457 kts 305°
2026-04-26 22:35 -5.18405 -58.48597 33858 ft 457 kts 305°
2026-04-26 22:35 -5.14665 -58.53687 33858 ft 457 kts 305°
2026-04-26 22:36 -5.10895 -58.58819 33858 ft 457 kts 305°
2026-04-26 22:36 -5.07111 -58.63968 33858 ft 457 kts 305°
2026-04-26 22:37 -5.03328 -58.69113 33858 ft 457 kts 306°
2026-04-26 22:37 -4.99566 -58.74230 33858 ft 457 kts 306°
2026-04-26 22:38 -4.95791 -58.79363 33858 ft 457 kts 306°
2026-04-26 22:38 -4.92021 -58.84489 33858 ft 458 kts 306°
2026-04-26 22:39 -4.88247 -58.89618 33858 ft 459 kts 305°
2026-04-26 22:39 -4.84442 -58.94789 33858 ft 460 kts 305°
2026-04-26 22:40 -4.80630 -58.99968 33858 ft 462 kts 305°
2026-04-26 22:40 -4.76816 -59.05149 33858 ft 464 kts 305°
2026-04-26 22:41 -4.72973 -59.10367 33858 ft 464 kts 305°
2026-04-26 22:41 -4.69172 -59.15528 33858 ft 463 kts 305°
2026-04-26 22:42 -4.65333 -59.20739 33858 ft 463 kts 305°
2026-04-26 22:42 -4.61519 -59.25915 33858 ft 463 kts 305°
2026-04-26 22:43 -4.57692 -59.31107 33858 ft 463 kts 305°
2026-04-26 22:43 -4.53881 -59.36277 33858 ft 463 kts 305°
2026-04-26 22:44 -4.50047 -59.41476 33858 ft 463 kts 305°
2026-04-26 22:44 -4.46231 -59.46650 33858 ft 463 kts 305°
2026-04-26 22:45 -4.42488 -59.51726 33370 ft 462 kts 305°
2026-04-26 22:45 -4.40584 -59.54306 32479 ft 463 kts 305°
2026-04-26 22:45 -4.38687 -59.56877 31560 ft 465 kts 305°
2026-04-26 22:45 -4.36783 -59.59457 30799 ft 462 kts 305°
2026-04-26 22:46 -4.34880 -59.62036 30055 ft 452 kts 305°
2026-04-26 22:46 -4.33038 -59.64529 29436 ft 447 kts 305°
2026-04-26 22:46 -4.31196 -59.67023 28812 ft 442 kts 305°
2026-04-26 22:46 -4.29362 -59.69506 28193 ft 438 kts 305°
2026-04-26 22:47 -4.27561 -59.71943 27585 ft 433 kts 305°
2026-04-26 22:47 -4.25794 -59.74335 26985 ft 429 kts 305°
2026-04-26 22:47 -4.24009 -59.76749 26376 ft 425 kts 305°
2026-04-26 22:47 -4.22285 -59.79081 25783 ft 422 kts 305°
2026-04-26 22:48 -4.20528 -59.81458 25176 ft 418 kts 305°
2026-04-26 22:48 -4.18833 -59.83751 24588 ft 415 kts 306°
2026-04-26 22:48 -4.17113 -59.86079 23989 ft 412 kts 306°
2026-04-26 22:48 -4.15422 -59.88382 23394 ft 409 kts 306°
2026-04-26 22:49 -4.13551 -59.90494 22737 ft 408 kts 318°
2026-04-26 22:49 -4.11304 -59.92208 22088 ft 407 kts 328°
2026-04-26 22:49 -4.08762 -59.93412 21440 ft 405 kts 342°
2026-04-26 22:49 -4.06030 -59.94059 20791 ft 402 kts 352°
2026-04-26 22:50 -4.03259 -59.94352 20123 ft 400 kts 358°
2026-04-26 22:50 -4.00520 -59.94445 19472 ft 398 kts
2026-04-26 22:50 -3.97777 -59.94428 18892 ft 394 kts
2026-04-26 22:50 -3.95054 -59.94338 18307 ft 390 kts
2026-04-26 22:51 -3.92364 -59.94185 17725 ft 387 kts
2026-04-26 22:51 -3.89689 -59.93984 17143 ft 383 kts
2026-04-26 22:51 -3.87030 -59.93751 16562 ft 379 kts
2026-04-26 22:51 -3.84419 -59.93504 15986 ft 376 kts
2026-04-26 22:52 -3.81845 -59.93255 15418 ft 373 kts
2026-04-26 22:52 -3.79283 -59.93003 14852 ft 369 kts
2026-04-26 22:52 -3.76729 -59.92742 14282 ft 366 kts
2026-04-26 22:52 -3.74214 -59.92477 13720 ft 363 kts
2026-04-26 22:53 -3.71700 -59.92217 13157 ft 359 kts
2026-04-26 22:53 -3.69241 -59.91974 12605 ft 356 kts
2026-04-26 22:53 -3.66757 -59.91740 12045 ft 354 kts
2026-04-26 22:53 -3.64317 -59.91517 11493 ft 352 kts
2026-04-26 22:54 -3.61911 -59.91303 11019 ft 348 kts
2026-04-26 22:54 -3.59552 -59.91096 10826 ft 335 kts
2026-04-26 22:54 -3.57265 -59.90896 10662 ft 320 kts
2026-04-26 22:54 -3.55103 -59.90708 10460 ft 301 kts
2026-04-26 22:55 -3.53087 -59.90532 10256 ft 290 kts
2026-04-26 22:55 -3.51087 -59.90357 10035 ft 285 kts
2026-04-26 22:55 -3.49145 -59.90186 9822 ft 280 kts
2026-04-26 22:55 -3.47198 -59.90016 9475 ft 281 kts
2026-04-26 22:56 -3.45247 -59.89845 9115 ft 282 kts
2026-04-26 22:56 -3.43296 -59.89674 8769 ft 283 kts
2026-04-26 22:56 -3.41345 -59.89504 8422 ft 283 kts
2026-04-26 22:56 -3.39379 -59.89333 8074 ft 283 kts
2026-04-26 22:57 -3.37426 -59.89163 7851 ft 279 kts
2026-04-26 22:57 -3.35506 -59.88996 7865 ft 278 kts
2026-04-26 22:57 -3.33560 -59.88825 7859 ft 282 kts
2026-04-26 22:57 -3.31608 -59.88655 7856 ft 281 kts
2026-04-26 22:58 -3.29728 -59.88492 7757 ft 274 kts
2026-04-26 22:58 -3.27797 -59.88324 7475 ft 273 kts
2026-04-26 22:58 -3.25916 -59.88160 7148 ft 273 kts
2026-04-26 22:58 -3.24009 -59.87993 6811 ft 274 kts
2026-04-26 22:59 -3.22100 -59.87826 6472 ft 274 kts
2026-04-26 22:59 -3.20219 -59.87663 6161 ft 271 kts
2026-04-26 22:59 -3.18380 -59.87503 5821 ft 257 kts
2026-04-26 22:59 -3.16648 -59.87353 5476 ft 239 kts
2026-04-26 23:00 -3.15049 -59.87214 5181 ft 224 kts
2026-04-26 23:00 -3.13554 -59.87106 4915 ft 211 kts
2026-04-26 23:00 -3.12118 -59.87080 4683 ft 198 kts
2026-04-26 23:00 -3.10810 -59.87073 4674 ft 182 kts
2026-04-26 23:01 -3.09537 -59.87064 4532 ft 184 kts
2026-04-26 23:01 -3.08281 -59.87054 4298 ft 179 kts
2026-04-26 23:01 -3.07051 -59.87046 4125 ft 177 kts 359°
2026-04-26 23:01 -3.05850 -59.87181 3941 ft 172 kts 342°
2026-04-26 23:02 -3.04786 -59.87720 3661 ft 171 kts 319°
2026-04-26 23:02 -3.04057 -59.88620 3330 ft 166 kts 294°
2026-04-26 23:02 -3.03790 -59.89718 3041 ft 161 kts 271°
2026-04-26 23:02 -3.03815 -59.90836 2805 ft 162 kts 268°
2026-04-26 23:03 -3.03872 -59.91960 2572 ft 163 kts 269°
2026-04-26 23:03 -3.03886 -59.93070 2321 ft 161 kts 271°
2026-04-26 23:03 -3.03884 -59.94123 2122 ft 161 kts 271°
2026-04-26 23:03 -3.03880 -59.95260 1912 ft 162 kts 271°
2026-04-26 23:04 -3.03877 -59.96391 1688 ft 162 kts 271°
2026-04-26 23:04 -3.03875 -59.97511 1479 ft 161 kts 271°
2026-04-26 23:04 -3.03873 -59.98621 1267 ft 162 kts 271°
2026-04-26 23:04 -3.03871 -59.99757 1046 ft 161 kts 271°
2026-04-26 23:05 -3.03869 -60.00879 833 ft 161 kts 271°
2026-04-26 23:05 -3.03869 -60.00964 816 ft 161 kts 271°
2026-04-26 23:06 -3.03867 -60.01933 632 ft 161 kts 271°
2026-04-26 23:06 -3.03865 -60.03037 424 ft 161 kts 271°
2026-04-26 23:06 -3.03862 -60.04141 279 ft 158 kts 271°
2026-04-26 23:06 -3.03858 -60.05005 273 ft 96 kts 270°
2026-04-26 23:07 -3.03860 -60.05539 273 ft 57 kts 269°
2026-04-26 23:07 -3.03859 -60.05870 273 ft 36 kts 270°
2026-04-26 23:07 -3.03858 -60.06083 273 ft 21 kts 270°
2026-04-26 23:07 -3.03823 -60.06168 273 ft 10 kts 333°
2026-04-26 23:08 -3.03765 -60.06175 273 ft 7 kts 12°
2026-04-26 23:08 -3.03718 -60.06153 273 ft 9 kts 38°
2026-04-26 23:08 -3.03691 -60.06100 273 ft 8 kts 84°
2026-04-26 23:08 -3.03688 -60.06044 273 ft 7 kts 87°
2026-04-26 23:09 -3.03688 -60.05994 273 ft 7 kts 91°
2026-04-26 23:09 -3.03689 -60.05947 273 ft 6 kts 91°
2026-04-26 23:09 -3.03690 -60.05904 273 ft 6 kts 91°
2026-04-26 23:09 -3.03691 -60.05864 273 ft 5 kts 90°
2026-04-26 23:10 -3.03691 -60.05828 273 ft 4 kts 90°
2026-04-26 23:10 -3.03691 -60.05797 273 ft 4 kts 90°
2026-04-26 23:10 -3.03691 -60.05769 273 ft 3 kts 90°
2026-04-26 23:10 -3.03691 -60.05746 273 ft 3 kts 90°
2026-04-26 23:11 -3.03691 -60.05727 273 ft 2 kts 90°
2026-04-26 23:11 -3.03691 -60.05712 273 ft 1 kts 90°
2026-04-26 23:11 -3.03691 -60.05699 273 ft 2 kts 90°
2026-04-26 23:11 -3.03691 -60.05669 273 ft 5 kts 90°
2026-04-26 23:12 -3.03691 -60.05617 273 ft 8 kts 90°
2026-04-26 23:12 -3.03691 -60.05545 273 ft 11 kts 90°
2026-04-26 23:12 -3.03688 -60.05469 273 ft 10 kts 86°
2026-04-26 23:12 -3.03680 -60.05398 273 ft 9 kts 82°
2026-04-26 23:13 -3.03669 -60.05332 273 ft 9 kts 75°
2026-04-26 23:13 -3.03652 -60.05272 273 ft 8 kts 75°
2026-04-26 23:13 -3.03637 -60.05217 273 ft 8 kts 75°
2026-04-26 23:13 -3.03623 -60.05163 273 ft 7 kts 76°
2026-04-26 23:14 -3.03610 -60.05113 273 ft 7 kts 75°
2026-04-26 23:14 -3.03598 -60.05065 273 ft 6 kts 75°
2026-04-26 23:14 -3.03586 -60.05022 273 ft 6 kts 71°
2026-04-26 23:14 -3.03570 -60.04986 273 ft 5 kts 62°
2026-04-26 23:15 -3.03551 -60.04956 273 ft 4 kts 55°
2026-04-26 23:15 -3.03526 -60.04925 273 ft 7 kts 47°
2026-04-26 23:15 -3.03481 -60.04886 273 ft 10 kts 37°
2026-04-26 23:15 -3.03424 -60.04841 273 ft 10 kts 43°
2026-04-26 23:16 -3.03383 -60.04790 273 ft 8 kts 58°
2026-04-26 23:16 -3.03361 -60.04737 273 ft 7 kts 75°
2026-04-26 23:16 -3.03353 -60.04687 273 ft 6 kts 87°
2026-04-26 23:16 -3.03354 -60.04643 273 ft 5 kts 93°
2026-04-26 23:17 -3.03356 -60.04604 273 ft 5 kts 91°
2026-04-26 23:17 -3.03354 -60.04570 273 ft 4 kts 85°
2026-04-26 23:17 -3.03349 -60.04543 273 ft 2 kts 56°
2026-04-26 23:17 -3.03336 -60.04537 273 ft 1 kts 13°
2026-04-26 23:18 -3.03327 -60.04536 273 ft 0 kts
2026-04-26 23:18 -3.03317 -60.04536 273 ft 2 kts
2026-04-26 23:18 -3.03294 -60.04537 273 ft 4 kts 355°
2026-04-26 23:18 -3.03274 -60.04539 273 ft 1 kts 353°
2026-04-26 23:19 -3.03271 -60.04539 273 ft 0 kts 353°